www.pogodaiklimat.ru
Время
(UTC), дата
15 15.01
18 15.01
21 15.01
00 16.01
03 16.01
06 16.01
09 16.01
12 16.01
15 16.01
18 16.01
21 16.01
00 17.01
03 17.01
06 17.01
09 17.01
12 17.01
15 17.01
18 17.01
21 17.01
00 18.01
03 18.01
06 18.01
09 18.01
12 18.01
15 18.01
18 18.01
21 18.01
00 19.01
03 19.01
06 19.01
09 19.01
12 19.01
15 19.01
18 19.01
21 19.01
00 20.01
03 20.01
06 20.01
09 20.01
12 20.01
15 20.01
18 20.01
21 20.01
00 21.01
03 21.01
06 21.01
09 21.01
12 21.01
15 21.01
18 21.01
21 21.01
00 22.01
03 22.01
06 22.01
09 22.01
12 22.01
Ветер
(напр.,м/с)
Видим. Явления Облачность Т
(С)
Тd
(С)
f
(%)
Тe
(С)
Тes
(С)
Комфортность P
(гПа)
Po
(гПа)
Тmin
(С)
Tmax
(С)
R
(мм)
R24
(мм)
S
(см)
штиль 0
{1}
10 км 4/0
[Ac trans]
-10.8 -10.8 100 -11 -11 по сезону 1013.3 995.9 -5.0 0.0
СЗ 1-1
{2}
10 км ясно -11.1 -11.7 95 -13 -13 по сезону 1011.4 994.0
СВ 2-3
{4}
10 км 10/0
[Ac trans]
-10.3 -10.9 95 -15 -15 по сезону 1010.1 992.7
С 2-3
{6}
10 км ясно -10.9 -11.5 95 -15 -15 по сезону 1006.9 989.6
СВ 3-4
{6}
10 км 10/10 660 м
[Sc]
-10.1 -10.7 95 -16 -16 по сезону 1004.0 986.8 -11.7 42
СВ 1-2
{4}
50 км 10/10 720 м
[Sc]
-8.2 -9.2 92 -11 -11 по сезону 1001.5 984.5
В 2-3
{5}
6000 м слаб. ливневой снег 10/10 420 м
[Cb cap]
-7.5 -8.1 95 -12 -12 по сезону 999.9 982.9
ЮВ 3-5
{7}
5000 м слаб. ливневой снег 10/10 420 м
[Cb cap]
-5.8 -6.9 92 -11 -11 по сезону 998.4 981.6
ЮВ 4-8
{10}
4000 м слаб. ливневой снег {метель} 10/10 400 м
[Cb cap]
-7.2 -9.3 85 -14 -14 по сезону 999.3 982.4 -5.5 2
ЮВ 3-5
{9}
4000 м слаб. ливневой снег {метель} 10/10 450 м
[Cb cap]
-9.4 -10.6 91 -15 -15 по сезону 1000.3 983.3
Ю 3-5
{8}
10 км {ливн. снег, метель} 10/10 600 м
[Sc]
-10.3 -11.6 90 -16 -16 по сезону 1000.8 983.6
ЮВ 2-3
{5}
10 км {ливн. снег, метель} 10/10 720 м
[Sc]
-10.2 -10.8 95 -15 -15 по сезону 1000.2 983.0
Ю 2-3
{5}
10 км 9/0
[Ac trans]
-10.8 -12.1 90 -15 -15 по сезону 998.9 981.8 -11.2 0.6 43
ЮЗ 3-6
{6}
50 км 3/0
[Ac trans]
-13.5 -14.8 90 -20 -20 прохладно 1000.0 982.6 -13.7
ЮЗ 3-7
{8}
50 км ясно -13.4 -16.1 80 -20 -19 прохладно 1002.6 985.2
ЮЗ 4-7
{9}
50 км 4/0
[Cc]
-14.7 -17.4 80 -22 -22 холодно 1005.8 988.2
ЮЗ 2-4
{7}
10 км 9/0
[Ci ing]
-16.8 -18.7 85 -22 -22 холодно 1009.1 991.4 -10.7
З 2-3
{5}
10 км 10/0
[Ac trans Ci ing]
-17.9 -19.8 85 -23 -23 холодно 1012.5 994.6
штиль 0
{3}
10 км ясно -21.3 -23.2 85 -21 -21 прохладно 1015.0 996.9
штиль 0
{2}
10 км ясно -23.8 -25.6 85 -24 -24 очень
холодно
1017.4 999.0
штиль 0 10 км ясно -25.6 -27.5 84 -26 -26 очень
холодно
1019.3 1000.7 -26.1 42
штиль 0 16 км 8/0
[Ci fib]
-25.7 -27.5 85 -26 -25 очень
холодно
1020.9 1002.3 -27.7
Ю 1-2
{2}
8000 м мгла 8/0
[Ci fib]
-21.2 -23.1 85 -24 -23 очень
холодно
1021.5 1003.2
Ю 1-2
{3}
12 км 4/0
[Ci fib]
-21.3 -23.2 85 -24 -24 очень
холодно
1021.9 1003.6
штиль 0
{2}
10 км 3/0
[Ci fib]
-24.7 -26.5 85 -25 -25 очень
холодно
1021.9 1003.3 -18.9
С 1-1
{3}
10 км ясно -25.4 -27.2 85 -29 -29 очень
холодно
1021.3 1002.7
С 1-1
{3}
10 км 8/0
[Ci fib]
-26.3 -28.1 85 -30 -30 очень
холодно
1022.1 1003.4
С 1-1
{3}
10 км 10/0
[Ci ing]
-25.7 -27.5 85 -29 -29 очень
холодно
1020.7 1002.1
С 1-2
{4}
10 км 10/0
[Ci ing]
-23.4 -25.3 84 -27 -27 очень
холодно
1019.4 1001.0 -27.7 43
С 1-2
{5}
50 км 10/10 700 м
[Sc]
-21.0 -22.9 85 -24 -24 очень
холодно
1017.2 999.0
С 2-3
{6}
50 км 9/0
[Ac trans]
-19.3 -21.2 85 -25 -25 очень
холодно
1015.3 997.3
С 1-2
{5}
6000 м слаб. снег 10/0
[As op]
-16.5 -18.4 85 -19 -19 холодно 1013.7 995.9
С 1-2
{2}
4000 м слаб. снег 10/0
[As trans]
-16.5 -17.8 90 -19 -19 холодно 1012.5 994.7 -15.9 0.4
штиль 0
{2}
4000 м слаб. снег 10/0
[As trans]
-16.3 -17.6 90 -16 -16 прохладно 1012.0 994.2
Ю 1-1
{3}
4000 м слаб. снег 10/0
[As op]
-16.2 -17.5 90 -19 -19 холодно 1011.8 994.0
Ю 1-1
{2}
4000 м слаб. снег 10/0
[As op]
-17.8 -19.0 90 -21 -21 по сезону 1011.9 994.0
ЮВ 1-1
{2}
10 км {снег} 3/0
[Ac trans]
-20.6 -22.5 85 -24 -24 холодно 1011.5 993.5 -21.3 1 46
Ю 2-4
{5}
12 км {снег} 10/0
[Ci ing]
-21.5 -23.3 85 -28 -27 очень
холодно
1012.2 994.1 -21.9
Ю 2-4
{4}
14 км 3/0
[Ci ing]
-20.7 -23.2 80 -27 -26 очень
холодно
1012.5 994.4
ЮВ 2-4
{5}
13 км 3/0
[Ci fib]
-21.4 -23.9 80 -27 -27 очень
холодно
1013.1 995.0
Ю 1-2
{4}
10 км ясно -24.1 -26.0 84 -28 -28 очень
холодно
1014.0 995.7 -19.8
штиль 0
{3}
10 км ясно -25.6 -27.5 84 -26 -26 очень
холодно
1014.6 996.1
Ю 1-1
{3}
4000 м слаб. снег 10/0
[As op]
-21.9 -23.8 85 -25 -25 холодно 1014.4 996.2
Ю 1-2
{3}
10 км {снег} 10/0
[Ac und]
-19.3 -21.2 85 -22 -22 по сезону 1014.2 996.2
Ю 1-2
{3}
4000 м слаб. снег 10/0
[As op]
-18.3 -20.2 85 -21 -21 по сезону 1014.3 996.4 -26.4 0.3 45
ЮЗ 3-4
{5}
6000 м слаб. снег 10/0
[As op]
-16.9 -18.8 85 -24 -24 прохладно 1014.4 996.6
ЮЗ 2-3
{6}
14 км в посл. час снег 9/0
[Ac trans Ci ing]
-14.9 -16.9 85 -20 -19 по сезону 1014.7 997.0
Ю 2-3
{5}
9000 м слаб. ливневой снег 9/6 570 м
[Cb cap Ac trans]
-13.3 -15.3 85 -18 -18 по сезону 1013.8 996.2
Ю 2-3
{6}
10 км в посл. час ливневой снег 10/3 600 м
[Cb cap Ci ing]
-12.7 -14.7 85 -17 -17 по сезону 1013.4 995.9 -12.6 0.6
ЮЗ 3-6
{6}
4000 м слаб. снег 10/0
[As op]
-11.9 -13.2 90 -18 -18 по сезону 1012.6 995.1
ЮЗ 4-6
{8}
4000 м слаб. снег 10/10 360 м
[Ns]
-10.9 -12.2 90 -18 -18 по сезону 1012.4 995.0
ЮЗ 3-5
{7}
4000 м слаб. ливневой снег 10/10 420 м
[Cb cap]
-10.7 -12.0 90 -17 -17 по сезону 1012.4 995.0
З 3-4
{5}
4000 м слаб. ливневой снег 10/10 450 м
[Cb cap]
-11.3 -12.6 90 -17 -17 по сезону 1012.5 995.0 -13.0 0.5 46
ЮЗ 1-2
{4}
7000 м слаб. ливневой снег 9/9 480 м
[Cb cap]
-11.7 -13.0 90 -14 -14 по сезону 1013.3 995.8
С 1-1
{3}
15 км {ливн. снег} 10/10 630 м
[Sc]
-11.0 -13.0 85 -13 -13 по сезону 1015.0 997.5
С 1-2
{4}
20 км {ливн. снег} 9/9 700 м
[Sc]
-11.4 -14.2 80 -14 -14 по сезону 1016.6 999.1
Местоположение метеостанции Сарапул (Удмуртия, Россия): широта 56.47 долгота 53.73 высота над уровнем моря 133 м.
В архиве по умолчанию представлена погода в Сарапуле за последнюю неделю. Архивные данные за месяц целиком и за предыдущие месяцы, начиная с января 2011 года, Вы можете получить, выбрав интересующий диапазон дат из раскрывающегося списка и нажав кнопку "Найти!".
*Определитесь, кто Вы:
Внимание! Время в таблицах - всемирное. Для получения местного времени необходимо прибавить поправку, которая равна 4 ч.
Смотрите также архив погоды в соседних городах и на ближайших метеорологических станциях:
Партнеры нашего сайта:
Теплый пол купить в москве
в вашем городе. Смотрите карту магазинов, покупайте теплый пол под плитку
electroin.ru

     
Пояснения к столбцам:
  • Ветер - указаны скорость ветра в м/с - средняя за 10 мин, порывы в срок и между сроками (в фигурных скобках) и направление, откуда дует ветер: С - северный,
  • СВ - северо-восточный, В - восточный, ЮВ - юго-восточный, Ю - южный, ЮЗ - юго-западный, З - западный, СЗ - северо-западный.
  • Видимость - горизонтальная дальность видимости в метрах или километрах. При видимости от 1 до 10 км при отсутствии осадков обычно наблюдается дымка, при ухудшении видимости до 1 км и менее - туман. В сухую погоду видимость может ухудшаться дымом, пылью или мглою.
  • Явления - указаны атмосферные явления, наблюдавшиеся в срок или в последний час перед сроком; фигурными скобками обозначены явления, наблюдавшиеся между сроками (за 1-3 часа до срока); квадратными скобками обозначены град или гололедные отложения с указанием их диаметра в мм.
  • Облачность - указаны через наклонную черту общая и нижняя облачность в баллах и высота нижней границы облаков в метрах; квадратными скобками обозначены формы облаков: Ci - перистые, Cs - перисто-слоистые, Cc - перисто-кучевые, Ac - высококучевые, As - высокослоистые, Sc - слоисто-кучевые, Ns - слоисто-дождевые, Cu - кучевые, Cb - кучево-дождевые. Подробнее классификацию облаков см. в Атласе облаков (PDF).
  • T - Температура воздуха - температура, измеренная на высоте 2 м над землей.
  • Td - Температура точки росы - температура, при понижении до которой содержащийся в воздухе водяной пар достигнет насыщения.
  • f - Относительная влажность воздуха - влажноcть воздуха, измеренная на высоте 2 м над землей.
  • Te - Эффективная температура - температура, которую ощущает одетый по сезону человек в тени. Характеристика душности погоды. При расчете учитывается влияние влажности воздуха и скорости ветра на теплоощущения человека.
  • Tes - Эффективная температура на солнце - температура, которую ощущает человек, с поправкой на солнечный нагрев. Характеристика знойности погоды. Зависит от высоты солнца над горизонтом, облачности и скорости ветра. Ночью, в пасмурную погоду, а также при ветре 12 м/с и более поправка равна нулю.
  • P - Атмосферное давление - приведенное к уровню моря атмосферное давление.
  • Po - Атмосферное давление - измеренное на уровне метеостанции атмосферное давление.
  • Tmin - Минимальная температура - минимум температуры воздуха на высоте 2 м над землей.
  • Tmax - Максимальная температура - максимум температуры воздуха на высоте 2 м над землей.
  • R - Количество осадков - Количество выпавших осадков за период времени, мм. При наведении курсора мыши на число - период времени, за который выпало указанное количество осадков.
  • R24 - Количество осадков - Количество выпавших осадков за 24 часа, мм.
  • S - Снежный покров - Высота снежного покрова, см. При наведении курсора мыши на число - состояние снежного покрова и степень покрытия местности в баллах.